Theta_e
332 332 332 333 332 332 333 333 334 335 335 335 335 334 335 335 337 338 339 339 339 339 340 342 343 344 344 345 345 345 345 344 343 342 342 341 342 342 345 348 349 350 351 353 354 354 356 358 358 359 360 360 360 359 359 361 361 361 361 361 360 360 358
332 333 333 333 333 333 333 334 334 335 335 335 335 335 335 335 336 338 339 339 339 339 340 341 344 344 344 345 345 345 344 344 344 345 343 342 344 342 344 346 349 349 350 352 354 355 356 356 358 358 359 360 360 360 359 359 360 360 360 360 359 359 359
332 333 333 333 333 333 334 334 334 334 335 335 336 335 334 335 336 338 339 339 339 340 340 341 343 343 344 344 344 344 344 344 344 344 342 341 341 340 342 345 347 348 349 351 353 354 356 355 357 358 359 359 359 359 359 358 359 359 359 359 359 358 358
331 333 334 335 335 335 335 335 335 334 335 336 336 336 335 335 336 338 339 340 339 340 339 340 342 343 344 344 344 344 344 344 344 344 343 343 341 340 341 342 344 346 348 349 352 353 354 355 356 357 361 359 359 359 359 358 358 358 358 359 358 359 359
325 331 334 335 335 335 335 335 335 335 335 336 336 338 336 336 336 337 339 340 340 340 340 341 342 344 345 345 344 344 344 344 344 344 344 344 344 341 339 340 342 343 346 348 351 354 354 355 355 357 359 359 358 359 359 358 357 358 357 358 358 357 357
322 326 332 334 335 335 335 337 336 335 335 335 336 337 337 336 336 336 338 340 340 341 341 342 342 344 344 344 345 344 345 345 345 345 344 345 344 340 339 340 341 343 344 347 351 352 353 354 355 356 357 358 358 358 358 358 357 356 357 357 357 357 357
320 323 326 333 336 336 336 336 336 336 337 336 337 338 338 336 335 336 338 339 340 340 340 341 342 343 344 345 345 345 344 344 344 343 344 344 344 342 340 340 342 342 345 348 349 352 352 353 355 356 357 358 358 358 358 358 358 357 357 356 356 356 357
319 320 324 326 333 337 337 337 337 337 337 337 336 336 337 336 336 336 337 338 340 340 340 340 342 343 344 345 345 345 345 345 344 344 344 343 344 344 341 340 340 342 346 347 348 351 352 353 354 355 356 357 358 359 358 358 359 357 357 356 355 354 355
318 320 320 323 327 334 337 337 338 337 337 336 336 336 337 337 336 335 336 338 339 340 340 341 342 344 345 345 345 345 345 345 345 344 343 342 343 343 343 341 340 341 343 346 348 352 352 352 353 354 355 356 357 358 358 358 358 358 357 357 356 355 354
317 317 320 321 323 327 333 336 342 337 336 337 336 336 337 337 337 336 336 338 339 340 341 341 342 343 345 345 345 345 345 345 346 345 343 342 342 342 343 343 342 342 341 343 347 350 352 353 353 354 354 354 356 357 357 357 357 357 357 357 357 356 355
316 318 318 319 320 322 326 328 331 334 338 338 337 337 337 337 337 336 336 338 338 340 341 342 343 343 344 345 345 345 345 345 345 345 344 343 343 343 343 344 344 343 341 341 343 348 351 353 354 353 353 353 354 355 356 357 357 357 357 357 357 357 356
316 316 317 318 318 320 321 323 326 329 332 336 337 338 338 339 338 337 337 338 339 340 341 342 343 344 344 345 345 345 345 345 345 345 345 344 344 344 343 344 344 345 345 342 341 343 347 351 352 352 352 353 353 354 355 357 357 357 357 357 357 357 357
316 315 316 317 318 318 320 321 323 325 328 331 335 338 338 338 338 338 338 338 339 340 342 343 343 344 344 345 345 345 345 345 345 346 346 346 345 345 345 344 344 344 345 346 343 341 342 346 349 352 352 352 353 353 354 355 356 357 357 357 357 357 357
318 314 315 316 317 317 317 319 321 323 325 327 329 334 337 340 339 339 339 338 339 340 341 342 343 343 344 345 345 345 346 346 346 346 347 347 347 346 345 345 344 344 345 347 346 344 342 342 344 348 351 352 352 353 354 354 355 356 356 357 357 357 356
312 313 313 314 315 316 316 317 319 321 323 325 327 328 330 335 338 341 342 341 341 340 341 343 343 343 343 344 345 346 347 347 348 348 348 348 348 347 346 346 345 345 345 345 346 347 346 345 343 343 346 349 351 351 352 352 353 354 355 356 357 357 356
311 312 312 313 314 315 316 317 318 320 322 323 325 326 328 329 332 336 341 341 341 342 342 343 342 343 343 343 344 346 347 348 349 348 348 348 348 348 347 347 346 345 344 344 345 346 348 348 347 345 344 344 347 349 350 351 352 350 342 344 355 357 356
310 311 313 313 313 314 315 317 318 319 320 322 324 326 327 327 329 332 337 340 343 343 344 343 343 343 343 343 345 346 347 348 348 349 348 348 348 348 348 348 347 346 346 345 344 344 347 348 347 346 346 344 344 346 348 349 350 340 334 335 339 353 356
309 311 313 313 314 315 314 315 317 318 319 321 323 325 326 327 328 330 331 335 339 345 346 344 344 343 343 344 345 346 347 347 348 348 348 349 348 349 349 348 348 347 346 345 344 344 345 345 346 347 347 346 346 345 346 348 343 333 332 333 333 339 356
309 311 311 314 316 316 314 315 316 318 319 321 323 324 325 327 327 328 331 334 338 344 348 346 345 345 345 345 346 346 347 348 348 348 348 349 349 349 349 349 348 347 346 345 346 345 344 344 344 345 347 347 346 345 346 347 338 331 330 330 331 331 344
311 311 312 314 314 315 316 316 317 319 320 322 323 325 326 328 327 329 332 335 339 341 345 348 347 347 346 347 347 347 348 348 348 348 349 349 349 349 349 348 348 347 347 347 347 346 344 344 344 344 345 346 347 347 347 347 338 329 327 327 327 329 335
311 312 312 313 314 315 316 316 317 318 320 321 323 324 325 325 327 329 330 334 336 338 341 347 349 348 348 348 348 349 349 349 349 348 349 350 350 350 349 349 348 348 348 348 347 346 345 344 344 344 345 345 346 346 346 347 334 326 324 324 324 326 330
312 313 313 313 315 316 316 317 317 318 320 323 322 323 324 325 327 327 329 333 335 337 340 343 347 350 351 350 350 350 350 350 350 350 350 350 350 350 349 349 349 348 349 349 348 348 347 347 346 345 344 345 345 345 345 347 330 325 323 322 322 324 339
314 314 314 316 316 317 319 319 318 319 322 321 321 323 323 325 327 327 329 332 333 335 337 338 339 342 346 352 353 353 353 352 352 351 351 352 351 350 350 350 350 350 351 349 349 348 347 347 346 347 346 345 345 345 345 346 335 323 321 320 320 324 342
316 316 316 316 317 318 319 320 319 321 322 320 320 321 323 325 327 327 328 330 331 332 333 333 334 337 340 342 346 352 357 355 354 353 353 353 352 352 352 352 352 351 352 350 349 348 348 348 348 348 348 346 346 345 345 345 338 321 318 318 319 329 343
316 315 316 316 316 316 318 320 320 321 321 320 318 319 321 324 326 326 327 329 329 329 329 330 332 334 335 339 344 347 350 356 357 355 354 354 354 354 353 353 353 353 354 352 351 350 351 351 349 349 349 348 347 348 346 347 340 322 318 317 316 327 345
315 315 315 316 317 317 320 322 319 317 318 318 318 321 321 323 324 325 325 327 328 328 327 328 330 332 335 338 343 347 350 353 355 358 357 356 356 356 355 356 355 355 354 353 353 352 352 351 351 349 349 350 349 349 348 347 348 341 318 316 314 319 344
315 316 316 316 316 320 318 319 318 317 318 318 319 320 321 323 322 323 323 325 325 324 326 328 330 332 335 338 341 345 349 352 354 354 357 359 358 357 357 357 356 356 355 354 354 353 352 352 351 351 350 350 350 350 350 349 349 346 320 315 314 315 327
312 315 316 318 319 318 318 318 317 317 319 320 319 320 320 322 321 322 322 323 322 323 326 328 329 331 333 335 338 342 346 351 355 357 357 358 359 358 358 358 358 357 356 355 355 353 352 352 352 351 351 351 351 351 351 351 342 351 326 316 313 313 317
309 312 313 314 315 317 317 318 316 315 317 320 320 318 319 321 321 320 321 321 321 323 326 327 329 330 330 331 334 337 340 342 345 351 357 359 360 359 358 359 358 358 357 356 355 354 353 352 352 351 351 351 352 352 352 352 351 332 342 318 313 312 313
309 311 312 314 316 316 318 318 318 316 317 319 319 319 319 320 319 320 320 320 322 323 325 326 327 327 328 329 331 333 335 338 341 345 350 355 359 359 358 358 358 358 357 356 355 354 353 352 352 351 350 350 350 352 352 353 353 338 329 333 314 312 311
307 309 310 312 313 317 317 317 318 317 317 318 319 319 319 320 319 320 319 321 322 323 323 324 325 326 326 328 329 331 332 334 337 339 343 347 354 357 358 358 358 356 357 356 355 354 353 353 352 351 351 350 350 351 352 353 353 353 338 326 320 314 312
307 308 309 311 313 315 316 317 318 317 317 318 319 318 319 320 320 318 320 321 322 322 323 324 325 325 327 328 329 331 332 332 334 337 341 346 352 356 358 358 358 356 356 356 355 354 353 352 352 351 351 351 351 351 352 353 353 353 352 335 328 320 314
306 307 308 309 311 314 315 316 316 317 318 318 318 318 318 319 320 320 321 322 322 322 322 321 323 326 326 327 328 330 332 332 334 337 343 349 354 357 358 359 359 358 356 355 354 354 353 353 352 351 351 350 351 352 352 352 352 352 353 351 344 339 330
306 307 308 310 311 314 314 315 315 316 318 318 318 318 318 319 319 321 321 320 321 321 321 321 322 323 325 326 328 330 331 333 337 339 342 348 353 354 356 358 359 357 356 355 355 354 353 353 352 351 351 351 351 352 351 351 352 352 352 352 349 345 341
306 307 308 309 310 314 313 314 317 317 318 318 319 318 318 319 320 320 320 319 320 320 319 320 321 322 324 327 330 329 332 334 336 339 342 345 346 348 351 354 357 357 358 359 359 358 356 354 354 354 354 354 353 351 351 351 351 352 336 351 333 343 346
307 307 307 309 311 312 312 316 318 317 318 318 319 318 319 320 320 319 319 319 319 319 318 319 319 320 322 326 326 327 327 329 332 335 338 340 342 344 348 345 330 341 358 358 342 335 331 331 353 357 357 355 356 356 353 352 354 333 322 319 318 317 322
307 307 307 309 309 310 312 313 317 318 318 319 319 319 320 320 319 317 318 319 318 318 318 318 319 320 320 322 323 324 325 327 329 333 338 340 343 344 345 347 349 319 317 328 338 329 319 315 320 323 330 350 356 351 332 330 329 326 316 314 313 313 313
308 307 309 310 309 310 312 314 316 317 318 318 318 319 319 317 316 316 317 317 317 317 318 318 318 318 319 320 321 323 325 326 328 331 333 337 341 344 344 345 347 352 326 315 316 318 312 312 313 314 315 318 329 345 355 331 316 316 313 311 311 310 310
Wind_Speed
8 10 12 12 13 14 15 15 16 15 15 14 14 15 15 14 13 13 13 13 15 14 13 13 13 12 13 12 12 11 10 10 8 9 8 8 7 7 7 7 7 7 6 6 6 6 6 6 6 6 5 5 5 5 5 4 4 3 4 4 3 3 4
11 13 13 13 14 15 16 14 14 14 13 14 14 15 14 15 13 14 14 14 15 16 15 14 13 13 13 12 11 11 11 11 10 8 7 6 6 6 7 8 7 7 7 6 5 5 5 6 6 6 6 5 6 5 5 5 5 5 4 4 4 3 3
11 13 13 13 14 15 15 13 14 14 14 14 14 14 15 15 15 15 14 14 14 14 13 14 15 14 13 12 11 12 12 11 10 10 10 9 9 9 7 6 7 7 6 6 6 6 5 6 6 6 6 6 6 6 6 5 5 5 5 4 4 4 4
9 12 14 16 16 14 15 16 17 16 15 16 16 17 16 16 15 14 15 15 16 14 15 14 14 13 12 13 12 12 12 11 12 12 11 10 9 8 7 6 6 5 6 8 6 6 5 6 6 6 7 6 6 6 6 6 5 6 6 5 4 5 5
19 11 12 12 12 12 13 15 16 16 16 17 17 17 16 16 15 13 13 14 16 17 17 17 14 13 11 12 11 10 12 13 11 10 10 9 8 8 8 9 8 8 8 6 6 6 6 6 6 6 6 6 6 6 6 6 6 6 5 6 5 4 4
14 17 10 12 13 13 14 16 17 18 17 17 17 16 15 16 14 16 15 15 14 14 13 13 14 14 13 13 11 11 10 11 11 11 11 10 9 9 10 9 9 8 8 8 7 7 7 7 7 7 7 6 6 6 6 6 5 5 5 5 5 4 4
16 13 17 10 13 13 13 13 14 15 16 15 14 13 14 15 17 16 14 15 15 15 15 14 14 13 13 12 12 12 13 12 11 11 10 10 10 10 10 8 8 8 8 5 7 7 8 8 8 8 7 7 6 7 6 6 6 5 5 6 6 5 5
16 17 14 17 12 12 10 11 11 11 10 10 11 13 15 15 14 15 16 15 15 14 14 15 14 13 12 11 11 13 13 12 11 11 10 11 11 11 10 9 9 8 6 8 8 7 8 9 7 7 8 7 7 7 7 7 6 6 5 6 6 6 4
18 14 18 17 18 12 9 7 8 10 11 11 13 13 15 14 15 16 17 16 14 15 15 15 15 14 12 12 12 13 12 11 11 11 12 12 11 11 11 9 9 8 9 9 7 7 8 8 7 8 8 8 8 8 7 7 7 6 6 6 7 6 6
17 19 18 19 18 16 16 6 3 8 9 9 11 11 14 14 14 14 15 15 15 16 16 15 13 13 12 12 12 12 12 12 11 12 11 11 11 13 12 10 9 9 10 10 7 8 7 7 8 7 8 9 8 8 8 8 7 7 6 7 7 6 7
15 17 19 21 19 19 17 17 16 11 5 6 9 8 10 11 13 14 14 14 15 15 15 14 12 12 13 13 13 12 12 12 12 12 13 12 9 11 10 10 9 8 10 9 9 9 8 7 7 8 8 7 9 9 9 8 8 8 7 6 6 7 6
16 15 17 15 19 21 18 14 15 15 13 12 7 5 7 9 11 11 12 13 14 14 13 13 12 13 12 12 12 12 13 12 12 13 13 13 11 12 11 10 11 10 8 9 11 9 8 9 7 8 9 9 9 9 9 8 8 8 8 7 7 7 6
12 13 13 15 14 15 18 20 19 15 16 13 11 12 4 9 11 11 11 11 12 11 12 12 12 12 13 13 13 12 13 13 13 13 12 12 13 11 11 11 10 10 10 9 10 9 8 8 9 8 9 9 8 8 9 8 8 8 8 7 6 7 7
17 17 17 15 16 18 17 17 17 18 17 16 15 12 12 11 5 9 10 12 12 12 12 11 12 12 12 12 12 12 13 13 12 12 12 12 11 11 12 11 11 11 10 9 10 9 9 9 9 8 7 8 8 9 7 8 7 8 8 7 7 7 7
16 17 17 17 16 16 16 16 15 17 16 15 16 16 15 12 12 10 5 8 10 12 14 13 13 14 14 13 13 13 12 11 11 10 11 11 10 11 11 11 11 10 10 10 10 8 9 9 9 9 9 9 9 9 8 7 9 8 8 8 8 8 8
15 15 17 16 15 14 14 14 15 14 15 16 16 17 16 14 13 11 12 7 11 12 13 12 14 14 14 14 13 12 12 11 10 10 10 11 11 11 11 10 10 10 11 11 11 10 10 9 10 10 10 10 10 9 8 9 8 10 15 13 9 8 8
13 13 14 14 15 16 13 14 13 14 16 16 17 15 13 13 11 13 11 12 7 11 11 13 13 13 14 14 13 12 12 11 11 11 11 12 11 10 10 11 10 10 10 11 10 10 10 10 11 11 10 11 10 10 9 9 9 15 15 16 16 10 9
13 12 11 12 14 13 15 16 15 16 15 15 15 14 15 14 14 12 13 11 11 10 9 12 13 14 14 13 13 13 13 12 12 12 12 11 12 12 11 11 11 11 11 10 11 10 9 11 12 11 10 9 10 10 11 10 12 16 16 17 17 15 11
11 9 10 11 10 12 13 13 14 14 13 13 13 14 14 14 13 14 13 11 13 9 9 12 14 13 13 13 13 13 12 12 12 13 12 12 12 12 11 11 11 12 11 12 11 10 10 12 12 12 11 11 12 12 11 11 13 16 17 17 18 18 15
8 8 9 9 10 11 12 12 12 11 11 11 13 13 13 12 12 12 11 11 10 11 9 8 11 12 13 13 14 13 13 13 13 13 14 13 12 11 11 12 12 12 11 11 10 11 12 12 12 12 11 12 12 12 11 12 13 17 18 18 19 18 15
8 10 9 9 11 12 12 12 11 13 14 13 14 13 14 13 13 13 13 12 12 11 11 8 7 10 12 13 14 13 13 13 13 14 13 13 13 12 12 13 12 12 11 10 11 12 12 13 12 13 12 13 12 11 12 12 16 17 19 19 19 19 15
8 8 8 9 9 10 11 11 12 12 12 13 11 13 12 13 13 13 13 12 12 11 11 10 7 3 5 10 11 12 13 13 13 13 13 12 12 12 13 13 13 13 12 11 10 10 10 10 11 12 13 13 13 12 14 12 17 17 19 20 19 19 11
7 6 6 6 6 8 7 8 10 10 10 12 12 11 12 12 13 13 11 12 12 12 11 10 9 9 8 5 5 8 9 10 11 12 12 11 12 12 13 12 12 12 10 11 11 10 10 11 11 11 12 12 13 14 14 14 15 18 20 20 21 14 9
6 5 6 6 6 5 6 8 8 9 10 12 12 12 11 11 12 13 11 10 11 13 13 11 9 9 8 7 7 6 4 8 9 10 11 10 12 12 12 11 11 11 10 11 12 12 12 11 11 11 11 13 14 14 13 13 15 19 19 20 20 17 12
7 6 6 6 6 6 8 7 9 8 9 9 11 13 13 13 12 12 11 10 11 11 12 13 12 9 8 8 7 6 5 4 7 11 11 11 11 10 12 12 12 12 10 10 10 11 10 11 10 11 11 11 13 16 16 14 14 18 19 20 20 17 11
10 9 8 6 6 6 6 6 6 8 8 9 10 10 12 12 11 12 12 11 10 9 10 13 14 13 9 7 6 4 4 4 4 5 10 12 12 12 13 12 11 11 11 10 9 11 10 11 10 12 11 11 12 12 13 15 14 14 19 19 19 21 14
10 9 9 7 7 7 5 6 6 6 6 7 8 8 8 9 10 10 10 11 10 10 10 11 13 13 11 8 7 5 4 3 4 5 6 8 10 12 12 11 12 11 11 11 10 11 11 11 11 11 12 11 12 12 13 13 14 13 17 18 19 21 18
12 11 9 7 7 7 5 6 7 8 7 6 5 7 7 7 8 8 8 9 11 12 10 11 13 12 11 10 9 6 5 5 5 5 6 7 8 10 11 11 11 11 12 11 11 12 13 12 11 11 11 11 12 12 13 14 17 13 14 18 19 20 23
13 13 12 11 9 7 6 5 6 8 8 7 6 5 6 7 8 9 9 7 8 10 12 12 12 13 12 10 9 7 7 6 7 6 5 6 8 10 12 11 11 12 11 12 12 13 13 13 12 12 12 11 11 11 11 11 11 17 13 17 21 22 22
11 12 12 9 9 9 6 5 5 7 8 7 5 5 6 6 8 9 10 11 10 9 11 12 12 12 11 10 9 9 7 8 8 8 7 8 8 8 10 11 11 11 11 11 11 11 12 11 11 12 12 11 11 10 10 9 10 12 18 16 21 21 24
12 12 13 13 11 10 8 7 7 6 8 7 5 3 4 5 7 10 11 11 11 12 14 14 13 11 10 10 9 8 7 7 8 9 9 9 8 8 8 10 11 10 11 11 11 12 12 12 11 12 12 12 12 11 9 10 10 10 14 20 20 23 24
12 11 12 12 11 10 9 7 6 7 8 8 6 4 3 4 4 8 10 10 10 10 12 14 14 10 10 9 9 9 9 10 10 10 10 11 9 9 8 8 9 10 10 10 12 12 12 12 11 12 11 11 11 10 10 10 10 11 11 13 17 17 22
13 12 12 12 13 10 8 7 7 7 7 8 7 5 4 5 4 4 6 8 9 10 12 12 11 10 9 9 9 9 7 9 8 9 10 10 9 8 7 7 8 9 10 11 12 12 12 13 11 11 11 12 10 10 9 10 11 11 10 9 8 8 11
14 13 12 11 11 11 8 7 8 8 7 7 7 6 4 4 5 4 6 7 8 9 10 11 10 10 10 10 9 8 6 8 13 13 10 10 9 8 7 7 8 10 11 12 13 13 12 12 13 14 12 12 10 10 10 12 11 11 11 9 8 9 9
14 14 12 12 11 9 10 8 8 8 7 7 6 6 6 5 4 4 5 8 8 9 9 9 11 11 11 9 8 9 8 7 8 10 11 10 10 10 9 9 9 9 11 12 11 11 12 12 12 13 12 11 10 11 11 12 12 11 11 14 16 14 9
13 15 14 11 10 11 10 9 8 8 8 7 6 5 6 6 5 4 6 8 8 9 10 11 10 10 10 9 8 8 8 8 9 9 10 11 10 10 11 13 15 13 11 11 13 17 17 14 13 13 10 11 12 12 14 13 13 13 16 17 16 17 19
13 13 13 12 11 11 11 10 8 7 7 6 4 5 6 6 5 6 6 7 8 9 9 10 9 8 8 9 9 10 10 9 9 9 9 9 9 8 9 9 11 15 20 18 15 15 19 19 21 18 14 13 11 11 17 16 10 8 15 17 18 18 19
13 14 14 13 12 12 11 9 8 8 8 5 4 5 5 5 5 6 7 8 8 9 8 8 8 8 9 9 9 10 9 9 9 9 9 9 8 8 7 8 9 9 12 17 18 16 15 18 20 20 19 18 16 12 10 13 15 13 13 17 18 18 19
Wind_Direction
200 194 198 194 195 199 199 198 196 197 196 193 192 192 190 188 188 184 187 185 190 190 189 186 187 188 193 195 193 190 190 185 185 185 187 191 189 183 189 196 196 200 197 195 198 194 202 186 186 190 188 197 205 202 196 188 185 186 182 190 194 193 204
197 202 203 199 199 202 201 195 194 197 196 193 192 192 191 189 187 187 189 186 190 190 186 188 188 191 192 194 193 190 189 189 187 187 183 183 189 192 192 191 196 201 201 202 193 199 190 192 189 187 187 192 205 199 196 187 183 177 178 178 184 205 192
206 207 205 204 205 203 199 192 194 196 195 193 192 191 192 191 188 188 186 187 191 192 189 190 190 191 192 192 190 193 192 188 186 187 187 191 192 191 192 194 199 200 200 196 198 197 187 188 193 192 187 192 201 199 196 189 183 175 174 174 189 200 196
278 224 210 211 209 204 197 196 194 194 195 194 192 191 192 191 189 188 188 187 188 189 190 194 193 194 192 190 192 192 192 191 190 191 194 191 188 183 183 199 201 196 194 205 197 188 187 186 190 198 195 193 200 201 193 196 183 174 173 168 187 197 206
336 274 235 220 215 207 202 201 198 196 196 195 192 190 190 188 185 187 190 192 191 190 191 189 191 194 194 193 194 193 192 191 192 194 193 189 180 173 187 196 198 201 207 193 189 188 188 184 188 190 197 193 196 193 201 193 185 171 172 173 179 189 207
340 335 256 227 219 211 209 207 201 196 196 193 191 188 188 186 186 190 190 190 193 195 192 189 191 190 192 193 194 196 194 196 194 192 190 187 178 182 191 196 195 203 203 204 187 191 185 187 187 187 191 193 192 197 200 194 188 175 168 173 187 184 199
347 345 344 274 225 221 215 211 206 204 199 195 189 187 184 185 189 191 189 193 192 190 189 191 195 193 197 191 196 192 193 194 194 195 193 190 189 189 193 189 192 199 207 188 202 188 187 190 191 189 193 190 193 196 199 202 191 178 170 175 184 187 193
2 356 346 347 301 228 218 209 210 211 203 188 190 187 188 189 188 189 191 193 192 192 193 192 192 195 195 194 195 196 195 196 195 194 191 192 192 197 192 190 193 194 185 201 209 193 196 196 187 189 188 192 195 197 196 200 200 181 175 178 180 188 185
13 3 2 352 352 325 226 201 203 197 195 191 195 195 189 187 189 192 192 192 192 191 196 194 195 193 191 192 193 198 197 194 194 192 194 195 196 200 196 193 193 181 190 202 202 198 204 199 190 188 188 196 200 198 197 201 199 188 183 186 185 183 190
17 14 4 4 4 7 357 353 165 169 189 197 195 192 193 192 193 192 192 193 191 194 195 195 195 191 191 193 197 196 193 194 194 191 194 198 201 202 201 195 190 183 192 198 194 196 206 201 196 186 188 194 197 198 200 196 199 193 194 194 186 187 189
19 18 18 13 11 9 10 14 8 1 337 212 195 195 194 194 196 193 195 192 194 197 194 194 192 191 192 194 195 194 195 197 194 195 196 199 198 203 200 198 190 188 193 189 193 199 194 203 191 191 191 194 195 199 199 202 195 197 198 197 191 189 187
19 18 17 12 14 14 14 9 10 11 11 6 334 214 184 197 197 199 198 197 196 194 192 193 191 193 193 193 195 197 197 198 197 199 199 199 199 201 201 199 198 193 194 190 196 195 193 197 192 196 200 202 202 201 207 202 199 204 206 198 192 190 191
19 18 17 17 17 15 16 15 10 7 11 4 11 359 298 202 193 197 193 196 196 196 192 192 190 192 194 195 199 199 200 198 201 200 199 200 202 201 200 202 200 197 196 192 198 194 191 194 199 205 203 206 199 203 203 201 200 207 207 204 198 197 196
17 18 13 10 14 15 13 11 9 9 4 7 7 3 11 351 273 204 193 193 189 189 190 191 190 193 196 197 200 202 203 203 201 201 202 201 199 200 202 202 203 204 202 194 198 200 199 195 199 204 202 204 205 209 202 199 201 203 207 204 201 198 202
15 14 9 9 9 10 8 5 7 5 4 4 5 11 6 2 360 340 239 193 191 187 194 188 190 193 196 197 200 203 204 202 202 203 202 202 200 203 203 203 204 202 202 204 205 202 204 204 202 204 208 211 209 208 203 202 208 205 203 202 203 204 207
15 15 12 5 1 4 3 3 2 358 3 5 7 7 5 3 357 351 337 251 194 196 191 186 193 193 196 199 201 202 201 201 200 200 200 201 203 204 203 203 202 202 205 208 208 208 205 205 206 206 209 211 212 208 206 211 212 212 205 202 204 201 209
14 11 5 359 1 360 357 360 356 357 0 2 5 1 2 358 352 349 345 342 284 207 195 191 192 194 195 199 199 199 199 197 201 198 200 202 204 203 203 205 204 205 207 208 207 208 208 205 209 210 210 211 211 211 212 215 216 211 205 206 206 204 208
12 6 2 5 359 353 1 357 358 359 353 350 354 358 1 354 352 350 349 335 333 306 221 196 194 194 196 198 197 198 197 198 198 200 203 200 204 203 203 203 204 207 208 208 208 209 207 211 213 212 210 211 212 215 217 219 216 207 206 206 207 206 209
4 360 7 358 353 358 356 353 353 350 347 348 350 354 352 352 348 350 340 334 326 311 281 212 196 194 196 197 199 200 198 197 198 201 203 203 204 204 202 203 205 207 208 209 210 205 208 214 213 213 212 212 214 219 219 224 212 206 206 206 206 207 209
358 2 359 356 358 359 353 355 346 341 348 342 347 347 348 347 348 337 332 331 329 332 319 256 209 196 196 196 200 200 198 198 199 201 204 203 203 203 204 205 208 209 207 210 206 208 212 213 215 216 213 213 215 220 223 224 215 202 204 206 206 206 204
358 2 356 354 352 350 355 353 344 345 342 350 346 347 348 349 345 342 337 343 344 343 336 326 247 208 198 200 203 200 199 199 200 204 205 204 202 202 205 206 210 210 210 206 206 208 210 211 213 215 215 216 215 218 223 227 215 201 202 205 205 206 201
347 345 350 356 343 337 348 347 348 341 334 337 345 350 352 344 339 340 340 338 349 343 346 343 355 329 244 218 208 205 203 200 202 204 206 205 202 204 207 208 209 210 209 210 212 213 212 214 216 217 217 217 216 217 225 226 213 203 202 203 204 200 194
326 327 337 333 337 333 328 342 337 335 336 338 343 350 349 338 337 337 340 351 350 349 346 353 1 3 360 334 249 221 211 207 205 207 208 205 205 208 210 210 211 215 209 213 215 212 210 214 211 215 214 214 215 218 224 229 215 204 203 202 200 188 195
314 319 317 316 329 314 329 333 330 334 342 342 337 345 347 343 338 335 341 351 354 349 345 343 348 352 352 349 351 340 240 207 206 210 209 206 209 210 214 214 216 216 207 211 213 214 213 211 216 215 215 215 218 216 221 228 219 205 205 201 193 187 196
310 317 316 328 325 329 336 322 327 328 336 337 340 342 346 341 337 339 342 346 352 352 343 334 329 336 337 335 328 321 334 302 216 205 208 211 211 211 215 216 216 217 210 212 216 220 219 217 218 218 217 214 217 217 219 227 224 207 206 202 191 189 201
307 310 317 322 330 333 315 317 314 332 335 342 338 337 344 336 335 339 341 341 344 354 343 329 319 310 307 310 299 302 306 299 299 239 216 210 211 211 213 214 214 214 208 212 212 219 218 219 218 220 219 215 216 216 217 225 228 212 206 201 193 190 195
303 299 303 311 319 323 314 312 315 305 315 324 331 338 338 336 331 333 337 335 338 349 336 319 308 306 309 300 294 299 285 274 261 259 251 235 224 219 219 216 217 215 213 212 213 218 222 220 220 220 224 219 218 219 219 221 224 220 200 201 193 193 193
315 305 295 299 303 309 304 308 309 313 313 314 333 334 334 333 328 321 334 332 335 331 319 314 309 305 302 301 299 311 317 308 281 249 245 244 236 230 226 222 218 216 213 213 213 216 220 220 221 224 225 225 221 220 223 220 218 222 201 197 195 193 196
312 307 304 305 305 297 303 300 305 311 314 317 334 336 331 328 330 332 329 329 333 326 322 314 302 302 303 303 308 320 320 312 305 293 274 251 239 231 228 221 218 217 214 212 214 216 219 220 220 222 226 228 225 224 222 220 218 213 209 195 195 195 198
302 302 301 290 285 293 292 285 289 303 310 317 325 330 329 337 331 329 332 328 331 329 322 309 300 296 303 308 312 316 314 312 305 291 281 271 257 241 229 219 215 215 213 213 214 217 220 222 221 223 226 226 227 224 221 215 220 206 208 200 195 197 199
296 294 293 293 288 287 289 281 289 293 302 311 323 327 329 327 329 328 330 330 334 333 322 311 305 311 316 314 309 309 311 310 302 295 288 279 269 254 233 223 213 213 214 211 215 217 220 221 216 221 225 227 227 224 218 215 212 216 204 204 196 199 201
288 287 286 288 285 277 275 280 279 288 295 307 318 327 322 325 329 328 324 332 332 320 309 305 308 318 316 311 309 313 319 320 310 296 286 279 267 259 247 235 216 214 212 210 216 217 221 222 218 221 222 228 229 225 222 214 216 217 208 201 203 203 204
283 283 284 286 283 280 278 279 285 283 289 295 309 320 319 323 317 316 323 323 317 308 306 304 304 303 308 310 306 309 315 319 309 305 294 281 278 265 255 240 227 219 216 213 216 218 220 222 220 223 223 226 224 225 222 221 221 218 214 195 192 191 195
280 281 280 275 276 277 272 265 267 273 279 286 295 305 310 313 312 320 317 306 305 305 303 306 313 314 311 310 309 302 315 316 307 300 286 281 280 281 276 250 232 229 221 214 215 214 217 216 217 221 220 222 218 218 218 224 223 218 211 200 180 194 188
276 274 275 280 280 270 262 253 258 262 271 276 286 296 304 304 308 316 308 308 310 310 312 313 321 321 313 314 320 325 326 305 297 295 296 298 299 290 279 273 258 241 235 231 223 218 217 213 219 220 220 218 218 215 223 226 226 222 204 205 199 191 189
273 272 273 272 271 270 267 255 247 256 263 271 280 285 294 304 314 310 307 311 316 321 319 323 323 324 324 327 328 324 320 316 304 295 289 290 289 289 288 277 263 249 240 240 226 222 222 215 221 220 216 222 223 215 219 223 223 212 195 205 205 199 194
271 270 272 274 276 270 258 251 245 245 254 262 275 279 290 300 308 314 311 315 320 321 320 325 324 325 325 322 322 318 318 311 296 289 284 278 276 277 277 286 289 266 252 246 238 219 219 222 229 233 226 218 232 228 231 240 241 193 189 201 205 203 205
263 262 267 271 267 262 258 253 247 244 251 263 275 279 286 299 312 318 319 322 322 318 317 320 324 321 318 317 313 310 307 300 295 292 289 290 282 274 279 284 288 281 245 238 241 246 232 225 228 230 229 230 229 228 233 228 224 215 200 203 202 204 206